UAL774 KDEN-KLAX

Flight info

Callsign UAL774
Flight time 1h 41m
Altitude 34000
Route CONNR8 WERNR ZAKRY CHESZ Q88 HAKMN ANJLL4
Aircraft B739/M-SDE2E3FGHIRWXY/LB1

Departure

Time 2026-05-06 20:17
Airport Denver International Airport (KDEN)

Arrival

Time 2026-05-06 21:59
Airport Los Angeles International Airport (KLAX)
Time Latitude Longitude Altitude Speed Heading
2026-05-06 19:47 39.85338 -104.68040 5382 ft 0 kts
2026-05-06 20:07 39.85328 -104.68040 5392 ft 4 kts
2026-05-06 20:08 39.85307 -104.68042 5380 ft 4 kts
2026-05-06 20:08 39.85280 -104.68042 5380 ft 4 kts
2026-05-06 20:08 39.85271 -104.68042 5381 ft 0 kts
2026-05-06 20:11 39.85277 -104.68068 5382 ft 9 kts 245°
2026-05-06 20:12 39.85239 -104.68193 5381 ft 17 kts 253°
2026-05-06 20:12 39.85208 -104.68342 5379 ft 17 kts 264°
2026-05-06 20:12 39.85205 -104.68514 5377 ft 19 kts 269°
2026-05-06 20:12 39.85203 -104.68691 5367 ft 20 kts 269°
2026-05-06 20:13 39.85200 -104.68885 5359 ft 22 kts 267°
2026-05-06 20:13 39.85195 -104.69097 5349 ft 21 kts 269°
2026-05-06 20:13 39.85198 -104.69285 5342 ft 21 kts 272°
2026-05-06 20:13 39.85201 -104.69467 5335 ft 10 kts 270°
2026-05-06 20:14 39.85202 -104.69506 5336 ft 0 kts 270°
2026-05-06 20:15 39.85202 -104.69555 5339 ft 14 kts 270°
2026-05-06 20:16 39.85233 -104.69656 5335 ft 9 kts 338°
2026-05-06 20:16 39.85251 -104.69659 5335 ft 0 kts 357°
2026-05-06 20:16 39.85269 -104.69659 5337 ft 17 kts 359°
2026-05-06 20:16 39.85619 -104.69655 5336 ft 82 kts
2026-05-06 20:17 39.86386 -104.69646 5335 ft 137 kts
2026-05-06 20:17 39.87088 -104.69637 5339 ft 165 kts
2026-05-06 20:17 39.88302 -104.69620 5666 ft 178 kts 360°
2026-05-06 20:17 39.89580 -104.69613 6199 ft 187 kts 358°
2026-05-06 20:18 39.91123 -104.70586 6946 ft 194 kts 307°
2026-05-06 20:18 39.91603 -104.72279 7137 ft 213 kts 266°
2026-05-06 20:18 39.91345 -104.73568 7256 ft 225 kts 243°
2026-05-06 20:18 39.90557 -104.75435 7432 ft 246 kts 241°
2026-05-06 20:19 39.89695 -104.77460 7628 ft 267 kts 241°
2026-05-06 20:19 39.88779 -104.79637 8150 ft 278 kts 241°
2026-05-06 20:19 39.87857 -104.81854 8958 ft 279 kts 242°
2026-05-06 20:19 39.86941 -104.84077 9759 ft 281 kts 242°
2026-05-06 20:20 39.86024 -104.86307 10472 ft 284 kts 242°
2026-05-06 20:20 39.85077 -104.88613 11166 ft 287 kts 242°
2026-05-06 20:20 39.84159 -104.90941 11840 ft 290 kts 249°
2026-05-06 20:20 39.83612 -104.93441 12515 ft 292 kts 258°
2026-05-06 20:21 39.83144 -104.96062 13230 ft 295 kts 258°
2026-05-06 20:21 39.82654 -104.98635 13926 ft 298 kts 257°
2026-05-06 20:21 39.82139 -105.01256 14581 ft 300 kts 257°
2026-05-06 20:21 39.81615 -105.03881 15306 ft 299 kts 257°
2026-05-06 20:22 39.81092 -105.06490 16035 ft 298 kts 257°
2026-05-06 20:22 39.80567 -105.09099 16736 ft 298 kts 257°
2026-05-06 20:22 39.80043 -105.11704 17419 ft 298 kts 258°
2026-05-06 20:22 39.79517 -105.14316 18109 ft 299 kts 258°
2026-05-06 20:23 39.78988 -105.16937 18750 ft 300 kts 258°
2026-05-06 20:23 39.78457 -105.19574 19267 ft 303 kts 258°
2026-05-06 20:23 39.77917 -105.22246 19723 ft 308 kts 258°
2026-05-06 20:23 39.77370 -105.24951 20223 ft 311 kts 258°
2026-05-06 20:24 39.76814 -105.27688 20737 ft 314 kts 258°
2026-05-06 20:24 39.76252 -105.30452 21169 ft 320 kts 258°
2026-05-06 20:24 39.75675 -105.33284 21544 ft 327 kts 258°
2026-05-06 20:24 39.75090 -105.36152 22060 ft 329 kts 258°
2026-05-06 20:25 39.74500 -105.39035 22572 ft 332 kts 258°
2026-05-06 20:25 39.73902 -105.41959 23050 ft 336 kts 259°
2026-05-06 20:25 39.73295 -105.44922 23346 ft 346 kts 259°
2026-05-06 20:25 39.72663 -105.48015 23437 ft 361 kts 258°
2026-05-06 20:26 39.72004 -105.51225 23521 ft 374 kts 258°
2026-05-06 20:26 39.71322 -105.54536 23733 ft 384 kts 258°
2026-05-06 20:26 39.70627 -105.57912 24078 ft 388 kts 259°
2026-05-06 20:26 39.69940 -105.61270 24469 ft 391 kts 259°
2026-05-06 20:27 39.69238 -105.64705 24766 ft 395 kts 259°
2026-05-06 20:27 39.68571 -105.68185 24980 ft 402 kts 263°
2026-05-06 20:27 39.68034 -105.71797 25049 ft 412 kts 265°
2026-05-06 20:27 39.67550 -105.75510 25105 ft 423 kts 265°
2026-05-06 20:28 39.67069 -105.79322 25162 ft 433 kts 265°
2026-05-06 20:28 39.66570 -105.83229 25210 ft 444 kts 265°
2026-05-06 20:28 39.66047 -105.87217 25282 ft 453 kts 265°
2026-05-06 20:28 39.65502 -105.91274 25344 ft 461 kts 264°
2026-05-06 20:29 39.64938 -105.95387 25570 ft 463 kts 264°
2026-05-06 20:29 39.64366 -105.99509 25877 ft 465 kts 265°
2026-05-06 20:29 39.63789 -106.03664 25999 ft 472 kts 265°
2026-05-06 20:29 39.63204 -106.07874 26126 ft 477 kts 265°
2026-05-06 20:30 39.62611 -106.12117 26421 ft 478 kts 265°
2026-05-06 20:30 39.61415 -106.20649 26947 ft 484 kts 266°
2026-05-06 20:30 39.60809 -106.24963 27146 ft 488 kts 266°
2026-05-06 20:31 39.60199 -106.29297 27406 ft 489 kts 266°
2026-05-06 20:31 39.59584 -106.33642 27742 ft 489 kts 266°
2026-05-06 20:31 39.58970 -106.37968 28006 ft 489 kts 267°
2026-05-06 20:31 39.58353 -106.42307 28371 ft 488 kts 267°
2026-05-06 20:32 39.57737 -106.46626 28806 ft 487 kts 267°
2026-05-06 20:32 39.57121 -106.50934 29299 ft 486 kts 268°
2026-05-06 20:32 39.56504 -106.55251 29770 ft 486 kts 268°
2026-05-06 20:32 39.55888 -106.59554 30162 ft 487 kts 268°
2026-05-06 20:33 39.55265 -106.63884 30497 ft 488 kts 268°
2026-05-06 20:33 39.54581 -106.68180 30940 ft 492 kts 262°
2026-05-06 20:33 39.53439 -106.72397 31378 ft 495 kts 256°
2026-05-06 20:33 39.52106 -106.76507 31825 ft 494 kts 254°
2026-05-06 20:34 39.50726 -106.80584 32184 ft 494 kts 253°
2026-05-06 20:34 39.49358 -106.84658 32515 ft 492 kts 254°
2026-05-06 20:34 39.48025 -106.88727 32975 ft 489 kts 255°
2026-05-06 20:34 39.46743 -106.92728 33445 ft 486 kts 255°
2026-05-06 20:35 39.45450 -106.96816 33859 ft 483 kts 255°
2026-05-06 20:35 39.44190 -107.00827 34141 ft 482 kts 255°
2026-05-06 20:35 39.42937 -107.04820 34090 ft 488 kts 255°
2026-05-06 20:36 39.40359 -107.12982 34091 ft 493 kts 255°
2026-05-06 20:36 39.37723 -107.21235 34066 ft 499 kts 253°
2026-05-06 20:37 39.34787 -107.29404 34075 ft 503 kts 251°
2026-05-06 20:37 39.31703 -107.37527 34065 ft 503 kts 251°
2026-05-06 20:38 39.28632 -107.45645 34045 ft 502 kts 251°
2026-05-06 20:38 39.25590 -107.53764 34062 ft 502 kts 251°
2026-05-06 20:39 39.22560 -107.61869 34052 ft 502 kts 251°
2026-05-06 20:39 39.19521 -107.69980 34051 ft 502 kts 251°
2026-05-06 20:40 39.16473 -107.78089 34022 ft 502 kts 251°
2026-05-06 20:40 39.13421 -107.86179 34042 ft 502 kts 251°
2026-05-06 20:41 39.10362 -107.94265 34050 ft 502 kts 251°
2026-05-06 20:41 39.07296 -108.02351 34054 ft 502 kts 251°
2026-05-06 20:42 39.04225 -108.10427 34065 ft 502 kts 251°
2026-05-06 20:42 39.01151 -108.18492 34063 ft 502 kts 251°
2026-05-06 20:43 38.98070 -108.26547 34084 ft 501 kts 251°
2026-05-06 20:43 38.94991 -108.34582 34092 ft 501 kts 251°
2026-05-06 20:44 38.91905 -108.42612 34078 ft 501 kts 251°
2026-05-06 20:44 38.88818 -108.50624 34091 ft 500 kts 251°
2026-05-06 20:45 38.85725 -108.58629 34074 ft 501 kts 251°
2026-05-06 20:45 38.82647 -108.66575 34069 ft 501 kts 251°
2026-05-06 20:46 38.79538 -108.74581 34050 ft 501 kts 251°
2026-05-06 20:46 38.76426 -108.82572 34042 ft 501 kts 251°
2026-05-06 20:47 38.73304 -108.90572 34050 ft 503 kts 251°
2026-05-06 20:47 38.70171 -108.98573 34048 ft 502 kts 251°
2026-05-06 20:48 38.67042 -109.06541 34075 ft 501 kts 251°
2026-05-06 20:48 38.63913 -109.14494 34038 ft 500 kts 250°
2026-05-06 20:49 38.60786 -109.22422 34060 ft 500 kts 250°
2026-05-06 20:49 38.57644 -109.30369 34063 ft 500 kts 250°
2026-05-06 20:50 38.54503 -109.38290 34046 ft 500 kts 250°
2026-05-06 20:50 38.51357 -109.46201 34010 ft 499 kts 250°
2026-05-06 20:51 38.48217 -109.54076 34034 ft 497 kts 250°
2026-05-06 20:51 38.45079 -109.61931 34046 ft 497 kts 250°
2026-05-06 20:52 38.41941 -109.69763 34041 ft 496 kts 250°
2026-05-06 20:52 38.38799 -109.77588 34029 ft 495 kts 250°
2026-05-06 20:53 38.35678 -109.85340 34032 ft 494 kts 249°
2026-05-06 20:53 38.32536 -109.93126 34033 ft 494 kts 249°
2026-05-06 20:54 38.29387 -110.00917 34038 ft 495 kts 249°
2026-05-06 20:54 38.26202 -110.08716 34007 ft 496 kts 249°
2026-05-06 20:55 38.22970 -110.16485 33987 ft 498 kts 248°
2026-05-06 20:55 38.19726 -110.24255 34005 ft 498 kts 248°
2026-05-06 20:56 38.16481 -110.32026 34002 ft 497 kts 248°
2026-05-06 20:56 38.13238 -110.39782 33975 ft 497 kts 248°
2026-05-06 20:57 38.09998 -110.47521 33966 ft 497 kts 248°
2026-05-06 20:57 38.06745 -110.55272 33975 ft 498 kts 248°
2026-05-06 20:58 38.03502 -110.62975 33987 ft 498 kts 248°
2026-05-06 20:58 38.00230 -110.70728 33980 ft 499 kts 248°
2026-05-06 20:59 37.96945 -110.78492 33966 ft 500 kts 247°
2026-05-06 20:59 37.93653 -110.86255 33953 ft 500 kts 247°
2026-05-06 21:00 37.90358 -110.94003 33943 ft 499 kts 247°
2026-05-06 21:00 37.87061 -111.01739 33924 ft 499 kts 247°
2026-05-06 21:01 37.83760 -111.09466 33933 ft 498 kts 247°
2026-05-06 21:01 37.81021 -111.15866 33906 ft 498 kts 247°
2026-05-06 21:02 37.77179 -111.24817 33916 ft 498 kts 246°
2026-05-06 21:02 37.73871 -111.32506 33900 ft 499 kts 246°
2026-05-06 21:03 37.71094 -111.38947 33906 ft 499 kts 246°
2026-05-06 21:03 37.67766 -111.46647 33900 ft 499 kts 246°
2026-05-06 21:04 37.64451 -111.54300 33901 ft 500 kts 246°
2026-05-06 21:04 37.61113 -111.61989 33897 ft 501 kts 246°
2026-05-06 21:05 37.57758 -111.69695 33904 ft 501 kts 246°
2026-05-06 21:05 37.54402 -111.77390 33924 ft 501 kts 246°
2026-05-06 21:06 37.51042 -111.85075 33956 ft 500 kts 246°
2026-05-06 21:06 37.47208 -111.92438 33972 ft 505 kts 237°
2026-05-06 21:07 37.42920 -111.99475 33958 ft 506 kts 237°
2026-05-06 21:07 37.38713 -112.06569 33945 ft 506 kts 238°
2026-05-06 21:08 37.34548 -112.13701 33871 ft 506 kts 238°
2026-05-06 21:08 37.30384 -112.20823 33910 ft 506 kts 238°
2026-05-06 21:09 37.26215 -112.27933 33919 ft 506 kts 238°
2026-05-06 21:09 37.22033 -112.35046 33917 ft 506 kts 238°
2026-05-06 21:10 37.17877 -112.42100 33917 ft 506 kts 237°
2026-05-06 21:10 37.13686 -112.49168 33914 ft 505 kts 236°
2026-05-06 21:11 37.09403 -112.56237 33918 ft 505 kts 236°
2026-05-06 21:11 37.05166 -112.63186 33972 ft 506 kts 236°
2026-05-06 21:12 37.00897 -112.70186 34016 ft 506 kts 236°
2026-05-06 21:12 36.96622 -112.77192 34069 ft 506 kts 236°
2026-05-06 21:13 36.92344 -112.84192 34101 ft 506 kts 236°
2026-05-06 21:13 36.88065 -112.91179 34128 ft 506 kts 236°
2026-05-06 21:14 36.83775 -112.98169 34131 ft 506 kts 236°
2026-05-06 21:14 36.79493 -113.05132 34095 ft 506 kts 235°
2026-05-06 21:15 36.75199 -113.12100 34051 ft 507 kts 235°
2026-05-06 21:15 36.70895 -113.19069 34027 ft 508 kts 235°
2026-05-06 21:16 36.66580 -113.26043 33981 ft 509 kts 235°
2026-05-06 21:16 36.62246 -113.33031 33981 ft 509 kts 235°
2026-05-06 21:17 36.57911 -113.40006 33975 ft 510 kts 235°
2026-05-06 21:17 36.53593 -113.46941 33967 ft 510 kts 235°
2026-05-06 21:18 36.49245 -113.53909 33974 ft 510 kts 235°
2026-05-06 21:18 36.44892 -113.60871 33964 ft 510 kts 234°
2026-05-06 21:19 36.40538 -113.67821 33967 ft 510 kts 234°
2026-05-06 21:19 36.36180 -113.74761 33959 ft 510 kts 234°
2026-05-06 21:20 36.31819 -113.81693 33956 ft 510 kts 234°
2026-05-06 21:20 36.27454 -113.88617 33957 ft 509 kts 234°
2026-05-06 21:21 36.23078 -113.95546 33955 ft 510 kts 234°
2026-05-06 21:21 36.18702 -114.02460 33949 ft 510 kts 234°
2026-05-06 21:22 36.14317 -114.09374 33933 ft 510 kts 234°
2026-05-06 21:22 36.09930 -114.16277 33933 ft 510 kts 233°
2026-05-06 21:23 36.05529 -114.23187 33937 ft 511 kts 233°
2026-05-06 21:23 36.01156 -114.30041 33945 ft 511 kts 233°
2026-05-06 21:24 35.96746 -114.36938 33931 ft 512 kts 233°
2026-05-06 21:24 35.92325 -114.43840 33939 ft 512 kts 233°
2026-05-06 21:25 35.87903 -114.50729 33961 ft 512 kts 233°
2026-05-06 21:25 35.83478 -114.57607 33943 ft 512 kts 233°
2026-05-06 21:26 35.79046 -114.64485 33988 ft 512 kts 233°
2026-05-06 21:26 35.74615 -114.71346 33982 ft 512 kts 233°
2026-05-06 21:27 35.70181 -114.78198 34025 ft 512 kts 233°
2026-05-06 21:27 35.65769 -114.85003 34032 ft 512 kts 233°
2026-05-06 21:28 35.61322 -114.91850 34022 ft 512 kts 233°
2026-05-06 21:28 35.56885 -114.98668 34028 ft 511 kts 233°
2026-05-06 21:29 35.52439 -115.05489 34020 ft 511 kts 233°
2026-05-06 21:29 35.47844 -115.12144 34036 ft 511 kts 228°
2026-05-06 21:30 35.42928 -115.18450 34041 ft 511 kts 226°
2026-05-06 21:30 35.37992 -115.24728 34041 ft 511 kts 227°
2026-05-06 21:31 35.33100 -115.31054 34039 ft 512 kts 227°
2026-05-06 21:31 35.28211 -115.37411 34028 ft 512 kts 227°
2026-05-06 21:32 35.23321 -115.43757 34037 ft 512 kts 227°
2026-05-06 21:32 35.15974 -115.53259 34029 ft 512 kts 227°
2026-05-06 21:33 35.11071 -115.59579 34035 ft 512 kts 227°
2026-05-06 21:33 35.06185 -115.65829 34014 ft 512 kts 227°
2026-05-06 21:34 35.01261 -115.72109 34026 ft 512 kts 227°
2026-05-06 21:34 34.96330 -115.78393 34023 ft 512 kts 227°
2026-05-06 21:35 34.91399 -115.84669 34025 ft 513 kts 227°
2026-05-06 21:35 34.86460 -115.90943 34016 ft 513 kts 227°
2026-05-06 21:36 34.81515 -115.97216 34005 ft 514 kts 227°
2026-05-06 21:36 34.76566 -116.03482 34009 ft 514 kts 227°
2026-05-06 21:37 34.71622 -116.09772 34009 ft 514 kts 227°
2026-05-06 21:37 34.66680 -116.16068 34012 ft 514 kts 227°
2026-05-06 21:38 34.61734 -116.22354 34016 ft 515 kts 227°
2026-05-06 21:38 34.59250 -116.25506 33538 ft 522 kts 227°
2026-05-06 21:38 34.56724 -116.28706 32768 ft 524 kts 227°
2026-05-06 21:39 34.54217 -116.31880 32035 ft 521 kts 226°
2026-05-06 21:39 34.51698 -116.35066 31044 ft 524 kts 226°
2026-05-06 21:39 34.49175 -116.38254 30180 ft 523 kts 226°
2026-05-06 21:39 34.46657 -116.41435 29103 ft 524 kts 226°
2026-05-06 21:40 34.44130 -116.44622 28081 ft 523 kts 226°
2026-05-06 21:40 34.41687 -116.47831 27030 ft 522 kts 233°
2026-05-06 21:40 34.39832 -116.51579 25969 ft 519 kts 246°
2026-05-06 21:40 34.38332 -116.55549 25689 ft 502 kts 247°
2026-05-06 21:41 34.36881 -116.59321 25450 ft 486 kts 246°
2026-05-06 21:41 34.35447 -116.62887 25263 ft 472 kts 246°
2026-05-06 21:41 34.33980 -116.66439 25081 ft 458 kts 245°
2026-05-06 21:41 34.32568 -116.69850 24675 ft 451 kts 246°
2026-05-06 21:42 34.31194 -116.73243 24174 ft 447 kts 246°
2026-05-06 21:42 34.29856 -116.76582 23635 ft 436 kts 246°
2026-05-06 21:42 34.28563 -116.79808 23086 ft 428 kts 246°
2026-05-06 21:42 34.27271 -116.83032 22539 ft 424 kts 246°
2026-05-06 21:43 34.25991 -116.86215 22029 ft 417 kts 246°
2026-05-06 21:43 34.24732 -116.89338 21530 ft 411 kts 246°
2026-05-06 21:43 34.23488 -116.92419 21062 ft 405 kts 246°
2026-05-06 21:43 34.22257 -116.95463 20592 ft 400 kts 246°
2026-05-06 21:44 34.21046 -116.98471 20121 ft 395 kts 248°
2026-05-06 21:44 34.20067 -117.01551 19665 ft 392 kts 255°
2026-05-06 21:44 34.19270 -117.04706 19209 ft 394 kts 257°
2026-05-06 21:44 34.18484 -117.07898 18736 ft 398 kts 256°
2026-05-06 21:45 34.17658 -117.11088 18214 ft 399 kts 255°
2026-05-06 21:45 34.16803 -117.14268 17669 ft 397 kts 255°
2026-05-06 21:45 34.15938 -117.17425 17114 ft 395 kts 255°
2026-05-06 21:45 34.15073 -117.20559 16689 ft 392 kts 254°
2026-05-06 21:46 34.14212 -117.23674 16215 ft 389 kts 254°
2026-05-06 21:46 34.13358 -117.26771 15747 ft 387 kts 254°
2026-05-06 21:46 34.12512 -117.29841 15277 ft 386 kts 254°
2026-05-06 21:46 34.11668 -117.32901 14806 ft 381 kts 254°
2026-05-06 21:47 34.11117 -117.34894 14494 ft 376 kts 254°
2026-05-06 21:47 34.10303 -117.37858 14039 ft 368 kts 255°
2026-05-06 21:47 34.09560 -117.40791 13560 ft 362 kts 256°
2026-05-06 21:47 34.08853 -117.43671 13080 ft 355 kts 256°
2026-05-06 21:48 34.08153 -117.46499 12660 ft 348 kts 256°
2026-05-06 21:48 34.07464 -117.49253 12519 ft 342 kts 255°
2026-05-06 21:48 34.06659 -117.51988 11973 ft 351 kts 249°
2026-05-06 21:48 34.05676 -117.54687 11558 ft 350 kts 247°
2026-05-06 21:49 34.04667 -117.57354 11127 ft 349 kts 248°
2026-05-06 21:49 34.03675 -117.60016 10712 ft 347 kts 248°
2026-05-06 21:49 34.02707 -117.62667 10404 ft 342 kts 248°
2026-05-06 21:49 34.01771 -117.65253 10253 ft 331 kts 249°
2026-05-06 21:50 34.00870 -117.67768 10101 ft 322 kts 251°
2026-05-06 21:50 34.00380 -117.70291 9971 ft 307 kts 268°
2026-05-06 21:50 34.00187 -117.72799 9809 ft 298 kts 268°
2026-05-06 21:50 33.99980 -117.75306 9439 ft 300 kts 267°
2026-05-06 21:51 33.99756 -117.77786 9058 ft 295 kts 267°
2026-05-06 21:51 33.99519 -117.80254 8672 ft 296 kts 266°
2026-05-06 21:51 33.99279 -117.82723 8328 ft 296 kts 266°
2026-05-06 21:51 33.99040 -117.85188 7988 ft 295 kts 266°
2026-05-06 21:52 33.98800 -117.87643 7654 ft 295 kts 266°
2026-05-06 21:52 33.98599 -117.89695 7327 ft 294 kts 265°
2026-05-06 21:52 33.98359 -117.92138 6991 ft 293 kts 266°
2026-05-06 21:52 33.98117 -117.94584 6662 ft 293 kts 266°
2026-05-06 21:53 33.97877 -117.97024 6306 ft 294 kts 266°
2026-05-06 21:53 33.97639 -117.99465 5964 ft 292 kts 265°
2026-05-06 21:53 33.97400 -118.01870 5607 ft 284 kts 265°
2026-05-06 21:53 33.97168 -118.04206 5282 ft 278 kts 264°
2026-05-06 21:54 33.96941 -118.06485 5004 ft 269 kts 265°
2026-05-06 21:54 33.96721 -118.08686 4700 ft 263 kts 265°
2026-05-06 21:54 33.96508 -118.10830 4369 ft 258 kts 265°
2026-05-06 21:54 33.96296 -118.12953 4065 ft 253 kts 265°
2026-05-06 21:55 33.96085 -118.15064 3735 ft 248 kts 265°
2026-05-06 21:55 33.95883 -118.17086 3427 ft 244 kts 264°
2026-05-06 21:55 33.95682 -118.19089 3129 ft 238 kts 264°
2026-05-06 21:55 33.95486 -118.21034 2835 ft 229 kts 263°
2026-05-06 21:56 33.95309 -118.22880 2621 ft 214 kts 263°
2026-05-06 21:56 33.95140 -118.24600 2374 ft 199 kts 262°
2026-05-06 21:56 33.94976 -118.26200 2130 ft 187 kts 262°
2026-05-06 21:56 33.94820 -118.27709 1878 ft 175 kts 261°
2026-05-06 21:57 33.94674 -118.29125 1661 ft 166 kts 261°
2026-05-06 21:57 33.94540 -118.30434 1452 ft 148 kts 261°
2026-05-06 21:57 33.94418 -118.31620 1240 ft 136 kts 261°
2026-05-06 21:57 33.94305 -118.32722 1067 ft 134 kts 263°
2026-05-06 21:58 33.94188 -118.33850 896 ft 136 kts 261°
2026-05-06 21:58 33.94071 -118.34985 669 ft 139 kts 263°
2026-05-06 21:58 33.93954 -118.36134 498 ft 139 kts 263°
2026-05-06 21:58 33.93841 -118.37260 312 ft 137 kts 262°
2026-05-06 21:59 33.93725 -118.38392 153 ft 136 kts 262°
2026-05-06 21:59 33.93619 -118.39418 123 ft 99 kts 262°
2026-05-06 21:59 33.93563 -118.39983 124 ft 37 kts 264°
2026-05-06 21:59 33.93562 -118.40080 125 ft 5 kts 274°
2026-05-06 22:00 33.93586 -118.40246 123 ft 27 kts 289°
2026-05-06 22:00 33.93627 -118.40446 125 ft 21 kts 262°
2026-05-06 22:00 33.93609 -118.40609 122 ft 18 kts 262°
2026-05-06 22:00 33.93593 -118.40758 121 ft 18 kts 266°
2026-05-06 22:01 33.93640 -118.40885 120 ft 17 kts 330°
2026-05-06 22:01 33.93754 -118.40909 124 ft 16 kts 353°
2026-05-06 22:01 33.93787 -118.40913 123 ft 0 kts 353°
2026-05-06 22:02 33.93792 -118.40893 110 ft 7 kts 94°
2026-05-06 22:02 33.93802 -118.40744 123 ft 26 kts 81°
2026-05-06 22:03 33.93824 -118.40528 125 ft 25 kts 83°
2026-05-06 22:03 33.93846 -118.40326 125 ft 23 kts 83°
2026-05-06 22:03 33.93863 -118.40136 123 ft 22 kts 84°
2026-05-06 22:03 33.93877 -118.40072 125 ft 7 kts 63°
2026-05-06 22:04 33.93932 -118.40050 123 ft 11 kts 343°
2026-05-06 22:04 33.94012 -118.40065 123 ft 12 kts 353°
2026-05-06 22:04 33.94091 -118.40076 122 ft 11 kts 352°
2026-05-06 22:04 33.94156 -118.40075 123 ft 9 kts 48°
2026-05-06 22:05 33.94158 -118.40029 123 ft 3 kts 94°
2026-05-06 22:05 33.94157 -118.40025 123 ft 0 kts 95°